| time (UTC) | temp C | wind direction | speed KPH | gust KPH | rain 1hr cm | rain 24hr cm | rain mn cm | humidity % | barometer mb |
| 20260504081510 | 13 | 154 | 0.0 | 0.0 | 0.00 | 0.15 | 0.15 | 83 | 1003.8 |
| 20260504080111 | 13 | 154 | 0.0 | 8.0 | 0.00 | 0.15 | 0.15 | 83 | 1003.8 |
| 20260504044554 | 19 | 149 | 0.0 | 9.7 | 0.00 | 0.15 | 0.15 | 76 | 1001.4 |
| 20260504043058 | 20 | 151 | 0.0 | 16.1 | 0.00 | 0.15 | 0.15 | 73 | 1001.3 |
| 20260504041533 | 20 | 171 | 4.8 | 20.9 | 0.00 | 0.15 | 0.15 | 73 | 1001.1 |
| 20260504040052 | 19 | 145 | 0.0 | 9.7 | 0.00 | 0.15 | 0.15 | 76 | 1001.3 |
| 20260504034508 | 18 | 150 | 0.0 | 9.7 | 0.00 | 0.15 | 0.15 | 80 | 1001.5 |
| 20260504033005 | 18 | 153 | 0.0 | 0.0 | 0.00 | 0.15 | 0.15 | 82 | 1001.7 |
| 20260504031544 | 17 | 157 | 0.0 | 0.0 | 0.00 | 0.15 | 0.15 | 87 | 1001.9 |
| 20260504030040 | 17 | 153 | 0.0 | 0.0 | 0.00 | 0.15 | 0.15 | 90 | 1002.1 |
| 20260504024521 | 17 | 150 | 0.0 | 0.0 | 0.00 | 0.15 | 0.15 | 92 | 1002.3 |
| 20260504023117 | 17 | 159 | 0.0 | 0.0 | 0.00 | 0.15 | 0.15 | 94 | 1002.5 |
| 20260504021556 | 16 | 355 | 0.0 | 8.0 | 0.03 | 0.15 | 0.15 | 96 | 1002.9 |
| 20260504020052 | 16 | 57 | 0.0 | 0.0 | 0.03 | 0.15 | 0.15 | 95 | 1003.3 |
| 20260504014531 | 16 | 110 | 0.0 | 0.0 | 0.03 | 0.15 | 0.15 | 96 | 1003.7 |
| 20260504013028 | 15 | 133 | 0.0 | 0.0 | 0.03 | 0.15 | 0.15 | 96 | 1003.8 |
| 20260504011508 | 15 | 53 | 0.0 | 1.6 | 0.00 | 0.15 | 0.15 | 96 | 1003.9 |
| 20260504010005 | 15 | 62 | 0.0 | 0.0 | 0.05 | 0.15 | 0.15 | 96 | 1004.0 |
| 20260504004550 | 15 | 65 | 0.0 | 0.0 | 0.05 | 0.15 | 0.15 | 96 | 1004.1 |
| 20260504003047 | 15 | 64 | 0.0 | 0.0 | 0.05 | 0.15 | 0.15 | 96 | 1004.5 |
| 20260504001520 | 15 | 64 | 0.0 | 0.0 | 0.08 | 0.15 | 0.15 | 96 | 1004.7 |
| 20260504000018 | 14 | 64 | 0.0 | 0.0 | 0.08 | 0.10 | 0.10 | 96 | 1004.7 |
| 20260503234558 | 14 | 64 | 0.0 | 0.0 | 0.08 | 0.10 | 0.10 | 96 | 1004.7 |
| 20260503233056 | 13 | 64 | 0.0 | 0.0 | 0.05 | 0.08 | 0.08 | 96 | 1004.7 |
| 20260503231533 | 13 | 64 | 0.0 | 0.0 | 0.05 | 0.05 | 0.05 | 95 | 1005.1 |
| 20260503230033 | 12 | 64 | 0.0 | 0.0 | 0.03 | 0.03 | 0.03 | 95 | 1005.0 |
| 20260503224609 | 11 | 64 | 0.0 | 0.0 | 0.03 | 0.03 | 0.03 | 95 | 1005.0 |
| 20260503223006 | 11 | 64 | 0.0 | 0.0 | 0.03 | 0.03 | 0.03 | 94 | 1005.0 |
| 20260503221553 | 11 | 64 | 0.0 | 0.0 | 0.00 | 0.00 | 0.00 | 94 | 1004.9 |
| 20260503220048 | 10 | 64 | 0.0 | 0.0 | 0.00 | 0.00 | 0.00 | 94 | 1004.9 |
| 20260503214527 | 10 | 64 | 0.0 | 0.0 | 0.00 | 0.00 | 0.00 | 94 | 1004.8 |
| 20260503213026 | -17 | 0.0 | 0.0 | 0.00 | 0.00 | 0.00 | 1004.8 | ||
| 20260503211502 | -17 | 0.0 | 0.0 | 0.00 | 0.00 | 0.00 | 1004.6 | ||
| 20260503210059 | -17 | 0.0 | 0.0 | 0.00 | 0.00 | 0.00 | 1004.5 | ||
| 20260503204540 | -17 | 0.0 | 0.0 | 0.00 | 0.00 | 0.00 | 1004.2 | ||
| 20260503203034 | -17 | 0.0 | 0.0 | 0.00 | 0.00 | 0.00 | 1004.2 | ||
| 20260503201511 | -17 | 0.0 | 0.0 | 0.00 | 0.00 | 0.00 | 1004.2 | ||
| 20260503200008 | -17 | 0.0 | 0.0 | 0.00 | 0.00 | 0.00 | 1004.0 | ||
| 20260503194544 | -17 | 0.0 | 0.0 | 0.00 | 0.00 | 0.00 | 1004.0 | ||
| 20260503193044 | -17 | 0.0 | 0.0 | 0.00 | 0.00 | 0.00 | 1003.9 | ||
| 20260503191519 | 11 | 64 | 0.0 | 0.0 | 0.00 | 0.00 | 0.00 | 93 | 1004.1 |
| 20260503190016 | 11 | 64 | 0.0 | 0.0 | 0.00 | 0.00 | 0.00 | 93 | 1004.2 |
| 20260503184554 | 11 | 64 | 0.0 | 0.0 | 0.00 | 0.00 | 0.00 | 94 | 1004.5 |
| 20260503183107 | 11 | 64 | 0.0 | 0.0 | 0.00 | 0.00 | 0.00 | 94 | 1004.4 |
| 20260503181529 | 11 | 64 | 0.0 | 0.0 | 0.00 | 0.00 | 0.00 | 94 | 1004.7 |
| 20260503180027 | 11 | 64 | 0.0 | 0.0 | 0.00 | 0.00 | 0.00 | 94 | 1004.9 |
| 20260503174508 | 11 | 64 | 0.0 | 0.0 | 0.00 | 0.00 | 0.00 | 93 | 1004.9 |
| 20260503173019 | 11 | 64 | 0.0 | 0.0 | 0.00 | 0.00 | 0.00 | 93 | 1005.0 |
| 20260503171546 | 11 | 64 | 0.0 | 0.0 | 0.00 | 0.00 | 0.00 | 93 | 1005.1 |